EW1160 Weather Reports


Display with metric or nautical units.
time (UTC)temp
F
wind
direction
speed
MPH
gust
MPH
rain 1hr
in
rain 24hr
in
rain mn
in
humidity
%
barometer
mb
20260509101551 46 172 0.0 0.0 0.00 0.00 0.00 93 1002.5
20260509100032 45 168 0.0 0.0 0.00 0.00 0.00 92 1002.6
20260509094531 45 176 0.0 0.0 0.00 0.00 0.00 92 1002.7
20260509093012 45 176 0.0 0.0 0.00 0.00 0.00 92 1003.0
20260509091511 45 177 0.0 0.0 0.00 0.00 0.00 92 1003.1
20260509090057 44 182 0.0 0.0 0.00 0.00 0.00 92 1003.1
20260509084553 43 175 0.0 0.0 0.00 0.00 0.00 92 1003.1
20260509083041 42 189 0.0 0.0 0.00 0.00 0.00 92 1003.1
20260509081539 42 188 0.0 0.0 0.00 0.00 0.00 91 1003.1
20260509080040 43 188 0.0 0.0 0.00 0.00 0.00 92 1003.1
20260509074536 43 188 0.0 0.0 0.00 0.00 0.00 91 1003.2
20260509073032 44 188 0.0 0.0 0.00 0.00 0.00 91 1003.2
20260509071529 45 188 0.0 0.0 0.00 0.00 0.00 91 1003.3
20260509070027 45 188 0.0 0.0 0.00 0.00 0.00 91 1003.6
20260509064529 45 186 0.0 0.0 0.00 0.00 0.00 91 1003.6
20260509063007 45 187 0.0 0.0 0.00 0.00 0.00 91 1003.9
20260509061505 45 187 0.0 0.0 0.00 0.00 0.00 91 1003.9
20260509060047 45 187 0.0 0.0 0.00 0.00 0.00 90 1004.1
20260509054604 46 188 0.0 0.0 0.00 0.00 0.00 90 1004.2
20260509053026 46 188 0.0 0.0 0.00 0.00 0.00 90 1004.4
20260509051523 46 187 0.0 0.0 0.00 0.00 0.00 89 1004.5
20260509050017 46 187 0.0 0.0 0.00 0.00 0.00 88 1004.6
20260509044504 46 187 0.0 0.0 0.00 0.00 0.00 88 1004.7
20260509043053 47 187 0.0 0.0 0.00 0.00 0.00 87 1004.8
20260509041542 47 187 0.0 0.0 0.00 0.00 0.00 87 1004.9
20260509040023 48 191 0.0 0.0 0.00 0.00 0.00 86 1005.2
20260509034520 48 196 0.0 0.0 0.00 0.00 0.00 85 1005.4
20260509033003 48 178 0.0 0.0 0.00 0.00 0.00 85 1005.6
20260509031505 49 191 0.0 0.0 0.00 0.00 0.00 84 1005.6
20260509030043 49 180 0.0 0.0 0.00 0.00 0.00 83 1005.7
20260509024544 50 170 0.0 0.0 0.00 0.00 0.00 82 1005.8
20260509023026 50 184 0.0 0.0 0.00 0.00 0.00 82 1006.0
20260509021527 51 194 0.0 0.0 0.00 0.00 0.00 81 1005.9
20260509020008 52 174 0.0 0.0 0.00 0.00 0.00 80 1005.9
20260509014508 52 185 0.0 0.0 0.00 0.00 0.00 78 1005.9
20260509013053 53 170 0.0 0.0 0.00 0.00 0.00 77 1005.7
20260509011550 54 166 0.0 0.0 0.00 0.00 0.00 75 1005.5
20260509010043 55 174 0.0 0.0 0.00 0.00 0.00 73 1005.4
20260509004548 56 179 0.0 0.0 0.00 0.00 0.00 71 1005.2
20260509003037 57 172 0.0 0.0 0.00 0.00 0.00 66 1005.2
20260509001537 57 170 0.0 0.0 0.00 0.00 0.00 63 1005.0
20260509000044 58 183 0.0 0.0 0.00 0.00 0.00 61 1005.0
20260508234536 59 193 0.0 0.0 0.00 0.00 0.00 59 1005.0
20260508233036 60 199 0.0 0.0 0.00 0.00 0.00 54 1005.0
20260508231534 61 178 0.0 0.0 0.00 0.00 0.00 46 1005.0
20260508230017 61 204 0.0 0.0 0.00 0.00 0.00 44 1004.9
20260508224516 61 188 0.0 0.0 0.00 0.00 0.00 43 1004.9
20260508223057 61 202 0.0 0.0 0.00 0.00 0.00 45 1005.0
20260508221600 61 207 0.0 0.0 0.00 0.00 0.00 43 1005.1
20260508220042 60 184 0.0 0.0 0.00 0.00 0.00 39 1005.3
20260508214538 61 220 0.0 0.0 0.00 0.00 0.00 40 1005.2
20260508213028 61 178 0.0 0.0 0.00 0.00 0.00 39 1005.4
20260508211518 62 179 0.0 0.0 0.00 0.00 0.00 37 1005.6
20260508210005 61 275 0.0 0.0 0.00 0.00 0.00 39 1005.6
20260508204504 61 275 0.0 0.0 0.00 0.00 0.00 38 1005.8
20260508203003 61 282 0.0 0.0 0.00 0.00 0.00 37 1006.0
20260508201613 61 328 0.0 0.0 0.00 0.00 0.00 39 1006.2
20260508200126 60 239 0.0 0.0 0.00 0.00 0.00 39 1006.4
20260508194555 60 354 0.0 0.0 0.00 0.00 0.00 37 1006.6
20260508193055 59 311 0.0 0.0 0.00 0.00 0.00 36 1006.8
20260508191550 58 12 0.0 0.0 0.00 0.00 0.00 40 1007.0
20260508190051 57 9 0.0 0.0 0.00 0.00 0.00 40 1007.2
20260508184527 57 354 0.0 0.0 0.00 0.00 0.00 34 1007.4
20260508183024 56 338 0.0 0.0 0.00 0.00 0.00 36 1007.7
20260508181537 56 359 0.0 0.0 0.00 0.00 0.00 34 1007.7
20260508180010 56 14 0.0 0.0 0.00 0.00 0.00 33 1008.0
20260508174515 57 4 0.0 0.0 0.00 0.00 0.00 33 1008.3
20260508173004 56 32 0.0 0.0 0.00 0.00 0.00 34 1008.5
20260508171502 55 16 0.0 0.0 0.00 0.00 0.00 36 1008.7
20260508170059 55 310 0.0 0.0 0.00 0.00 0.00 44 1009.0
20260508164558 54 359 0.0 0.0 0.00 0.00 0.00 46 1009.1
20260508163053 53 354 0.0 0.0 0.00 0.00 0.00 50 1009.2
20260508161537 52 359 0.0 0.0 0.00 0.00 0.00 48 1009.3
20260508160039 52 10 0.0 0.0 0.00 0.00 0.00 47 1009.4
20260508154515 52 18 0.0 0.0 0.00 0.00 0.00 46 1009.5
20260508153014 52 274 0.0 0.0 0.00 0.00 0.00 53 1009.6
20260508151606 50 312 0.0 0.0 0.00 0.00 0.00 51 1009.6
20260508150057 50 333 0.0 0.0 0.00 0.00 0.00 55 1009.8
20260508144558 49 337 0.0 0.0 0.00 0.00 0.00 66 1009.9
20260508143054 48 337 0.0 0.0 0.00 0.00 0.00 65 1009.9
20260508141558 48 257 0.0 0.0 0.00 0.00 0.00 66 1010.0
20260508140055 48 301 0.0 0.0 0.00 0.00 0.00 67 1009.9
20260508134547 48 301 0.0 0.0 0.00 0.00 0.00 67 1010.0
20260508133050 48 220 0.0 0.0 0.00 0.00 0.00 71 1010.1
20260508131529 47 247 0.0 0.0 0.00 0.00 0.00 71 1010.0
20260508130027 47 247 0.0 0.0 0.00 0.00 0.00 73 1009.9
20260508124510 46 209 0.0 0.0 0.00 0.00 0.00 74 1009.7
20260508123009 45 203 0.0 0.0 0.00 0.00 0.00 74 1009.5
20260508121508 44 167 0.0 0.0 0.00 0.00 0.00 79 1009.4
20260508120007 43 162 0.0 0.0 0.00 0.00 0.00 84 1009.5
20260508114506 41 161 0.0 0.0 0.00 0.00 0.00 88 1009.4
20260508113007 39 161 0.0 0.0 0.00 0.00 0.00 89 1009.3
20260508111511 38 161 0.0 0.0 0.00 0.00 0.00 89 1009.3
20260508110007 38 161 0.0 0.0 0.00 0.00 0.00 89 1009.2
20260508104505 38 161 0.0 0.0 0.00 0.00 0.00 88 1009.2
20260508103009 38 161 0.0 0.0 0.00 0.00 0.00 87 1009.2